Regional Weather Roundup
Issued by NWS

Home | Current Version | Previous Version | Text Only | Print | Product List | Glossary Off
Versions: 1 2 3 4 5 6 7 8 9 10 11 12 13 14 15 16 17 18 19 20 21 22 23 24 25 26 27

000
ASUS45 KSLC 221510
RWRUT

UTAH REGIONAL WEATHER ROUNDUP
NATIONAL WEATHER SERVICE SALT LAKE CITY UT
900 AM MDT THU JUN 22 2017

UTZ001>011-023>025-221600-

NORTHERN UTAH

CITY           SKY/WX    TMP DP  RH WIND       PRES   REMARKS
BRIGHAM CITY   SUNNY     68  35  29 CALM      30.05R
DUGWAY         MOSUNNY   75  24  14 W3        30.04R
HILL AFB       SUNNY     67  42  40 NW5       30.07R
LOGAN          SUNNY     65  46  50 CALM      30.06R
OGDEN          SUNNY     71  38  29 N7        30.04R
SALT LAKE CITY MOSUNNY   74  39  28 NW8       30.04R
TOOELE VALLEY  SUNNY     73  45  35 N7        30.06R
WENDOVER         N/A     74  32  21 NE13G20   30.07R
HEBER CITY     SUNNY     66  46  48 W3        30.08R
WEST JORDAN    SUNNY     73  46  38 NW13G18   30.07R

$$

UTZ011>015-024>027-221600-

CENTRAL/NORTHEAST UTAH

CITY           SKY/WX    TMP DP  RH WIND       PRES   REMARKS
PROVO AIRPORT  SUNNY     73  46  38 W9        30.05R
MOAB/CANYONLAN MOSUNNY   84  36  18 CALM      29.89R
DELTA          SUNNY     73  28  19 N12       30.05S
PRICE          MOSUNNY   82  43  25 N9        30.02R
RICHFIELD      SUNNY     73  41  31 CALM      30.08
ROOSEVELT      SUNNY     79  43  27 CALM      29.99S
VERNAL         SUNNY     79  44  28 S5        29.97R

$$

UTZ013>016-019>022-027-221600-

SOUTHERN UTAH

CITY           SKY/WX    TMP DP  RH WIND       PRES   REMARKS
BRYCE CANYON   SUNNY     75  29  18 W12       30.22R
CEDAR CITY     SUNNY     74  30  19 CALM      30.08R
MILFORD        SUNNY     78  35  21 N14       30.06R
ST GEORGE      SUNNY     83  32  16 S3        29.85S
HANKSVILLE     SUNNY     79  27  14 CALM      29.93R
KANAB          SUNNY     77  30  18 N2        30.05
BLANDING       PTSUNNY   76  36  23 SE5       30.12R

$$

REGIONAL REPORTS     COLORADO/ARIZONA

CITY           SKY/WX    TMP DP  RH WIND       PRES   REMARKS
CRAIG, CO      SUNNY     66  47  50 S3        30.05F
GRAND JUNCTION SUNNY     76  42  29 SE8       29.94R
RIFLE, CO      SUNNY     70  45  40 N6        30.02S
MONTROSE, CO   CLOUDY    77  38  24 E14       30.02F
CORTEZ, CO     SUNNY     75  43  31 W7        30.08S
COLORADO CITY    N/A     86  36  16 E3        30.03R
PAGE, AZ       SUNNY     89  27  10 CALM      29.93R
GRAND CANYON   SUNNY     78  32  18 CALM      30.17R
KINGMAN, AZ    SUNNY     94  34  12 SW12      29.90R
FLAGSTAFF, AZ  SUNNY     81  26  13 VRB6      30.21R

$$

REGIONAL REPORTS    NEVADA/IDAHO/WYOMING

CITY           SKY/WX    TMP DP  RH WIND       PRES   REMARKS
LAS VEGAS, NV  SUNNY     94  31  10 NW5       29.77R
ELY, NY        SUNNY     66  38  35 N8        30.17S
ELKO, NV       SUNNY     65  35  33 CALM      30.17R
POCATELLO, ID  SUNNY     62  36  37 SW15      30.13R
BURLEY, ID     SUNNY     62  33  33 W13       30.12R
FORT BRIDGER,    N/A     68  32  26 NW13G18   30.18R
EVANSTON, WY   SUNNY     64  48  56 SW7       30.17R
ROCK SPRINGS,  SUNNY     66  32  28 NW10      30.11S
KEMMERER, WY     N/A     63  36  36 NW8       30.16S

$$




USA.gov is the U.S. government's official web portal to all federal, state and local government web resources and services.